User: anonymous   Login
Location: Caltech
(34.1382°N, 118.1253°W)
Time: 09:32:34
(UTC-07:00)
Language:

Cosmos 2237 Rocket - Orbit

View from above orbital plane
View from above orbital plane
View from above satellite
View from above satellite

Ground track
Ground track

The orbit data is extracted from the following two-line orbital elements,

1 22566U 93016B   17263.07947314  .00000227  00000-0  14189-3 0  9991
2 22566  71.0067 227.7369 0011022 337.9396  22.1251 14.14951204264697
Epoch (UTC): 20 September 2017 01:54:26
Eccentricity: 0.0011022
inclination: 71.0067°
perigee height: 834 km
apogee height: 850 km
right ascension of ascending node: 227.7369°
argument of perigee: 337.9396°
revolutions per day: 14.14951204
mean anomaly at epoch: 22.1251°
orbit number at epoch: 26469

The dashed part of the orbit path shows where the satellite is in the earth's shadow,  

DLR